Weather History for Canadian, TX

Change the Weather History Date:

Tuesday, March 5, 2013

  Actual Average (KPPA) Record (KPPA)
Temperature  
Mean Temperature 40 °F -  
Max Temperature 50 °F 54 °F 82 °F (2009)
Min Temperature 28 °F 26 °F 5 °F (1989)
Degree Days  
Heating Degree Days 25    
Moisture  
Dew Point 19 °F    
Average Humidity 52    
Maximum Humidity 93    
Minimum Humidity 20    
Precipitation  
Precipitation 0.00 in - - ()
Sea Level Pressure  
Sea Level Pressure 30.34 in    
Wind  
Wind Speed 10 mph (NNW)    
Max Wind Speed 18 mph    
Max Gust Speed 26 mph    
Visibility 10 miles    
Events      
Averages and records for this station are not official NWS values.
T = Trace of Precipitation, MM = Missing Value Source: NWS Daily Summary

Daily Weather History Graph

Daily Weather History Graph

Search for Another Location

Airport:

Trip Planner

Search our weather history database for the weather conditions in past years. The results will help you decide how hot, cold, wet, or windy it might be!

Date:

Astronomy

Mar. 05, 2013 Rise Set
Actual Time 7:05 AM CST 6:40 PM CST
Civil Twilight 6:40 AM CST 7:06 PM CST
Nautical Twilight 6:10 AM CST 7:35 PM CST
Astronomical Twilight 5:41 AM CST 8:05 PM CST
Moon 2:11 AM CST (3/5) 12:29 PM CST (3/5)
Length of Visible Light 12h 25m
Length of Day
11h 34m
Last Quarter, 40% of the Moon is Illuminated
Mar 5
Last Quarter
Mar 11
New
Mar 19
First Quarter
Mar 27
Full
Apr 2
Last Quarter

Hourly Weather History & Observations

Time (CST) Temp. Windchill Dew Point Humidity Pressure Visibility Wind Dir Wind Speed Gust Speed Precip Events Conditions
12:15 AM 35.6 °F 28.0 °F 33.8 °F 93% 30.18 in 10.0 mi North 10.4 mph 18.4 mph N/A   Overcast
12:35 AM 35.6 °F 28.6 °F 32.0 °F 87% 30.20 in 10.0 mi NNW 9.2 mph - N/A   Overcast
12:55 AM 35.6 °F 28.0 °F 32.0 °F 87% 30.21 in 10.0 mi NNW 10.4 mph - N/A   Overcast
1:15 AM 35.6 °F 28.0 °F 32.0 °F 87% 30.22 in 10.0 mi NNW 10.4 mph - N/A   Overcast
1:55 AM 35.6 °F 27.5 °F 32.0 °F 87% 30.24 in 10.0 mi NNW 11.5 mph - N/A   Mostly Cloudy
2:35 AM 35.6 °F 27.1 °F 32.0 °F 87% 30.25 in 10.0 mi NNW 12.7 mph - N/A   Scattered Clouds
2:55 AM 35.6 °F 27.5 °F 30.2 °F 81% 30.26 in 10.0 mi North 11.5 mph - N/A   Clear
3:15 AM 33.8 °F 25.3 °F 30.2 °F 87% 30.26 in 10.0 mi North 11.5 mph - N/A   Clear
3:35 AM 33.8 °F 25.3 °F 28.4 °F 81% 30.27 in 10.0 mi North 11.5 mph - N/A   Clear
3:55 AM 33.8 °F 25.3 °F 26.6 °F 75% 30.28 in 10.0 mi North 11.5 mph - N/A   Clear
4:15 AM 32.0 °F 25.6 °F 26.6 °F 80% 30.28 in 10.0 mi North 6.9 mph - N/A   Clear
4:55 AM 32.0 °F 23.6 °F 26.6 °F 80% 30.29 in 10.0 mi NNW 10.4 mph - N/A   Clear
5:15 AM 32.0 °F 24.2 °F 24.8 °F 75% 30.32 in 10.0 mi NNW 9.2 mph - N/A   Clear
5:35 AM 32.0 °F 24.2 °F 23.0 °F 69% 30.33 in 10.0 mi NNW 9.2 mph - N/A   Clear
5:55 AM 32.0 °F 24.2 °F 21.2 °F 64% 30.35 in 10.0 mi NW 9.2 mph - N/A   Clear
6:15 AM 32.0 °F 23.0 °F 21.2 °F 64% 30.36 in 10.0 mi NW 11.5 mph - N/A   Clear
6:55 AM 30.2 °F 22.6 °F 19.4 °F 64% 30.37 in 10.0 mi NNW 8.1 mph - N/A   Clear
7:15 AM 30.2 °F 21.9 °F 19.4 °F 64% 30.37 in 10.0 mi NNW 9.2 mph - N/A   Clear
7:35 AM 30.2 °F 22.6 °F 19.4 °F 64% 30.38 in 10.0 mi NNW 8.1 mph - N/A   Clear
7:55 AM 30.2 °F 21.9 °F 17.6 °F 60% 30.39 in 10.0 mi NNW 9.2 mph - N/A   Clear
8:15 AM 32.0 °F 24.2 °F 19.4 °F 60% 30.40 in 10.0 mi NNW 9.2 mph - N/A   Clear
8:35 AM 32.0 °F 23.0 °F 19.4 °F 60% 30.40 in 10.0 mi NNW 11.5 mph 17.3 mph N/A   Clear
8:55 AM 32.0 °F 21.2 °F 17.6 °F 55% 30.41 in 10.0 mi North 16.1 mph 23.0 mph N/A   Clear
9:15 AM 33.8 °F 23.2 °F 17.6 °F 52% 30.42 in 10.0 mi North 17.3 mph - N/A   Clear
9:35 AM 33.8 °F 23.2 °F 14.0 °F 44% 30.42 in 10.0 mi NNW 17.3 mph 26.5 mph N/A   Clear
9:55 AM 35.6 °F 25.5 °F 14.0 °F 41% 30.42 in 10.0 mi NNW 17.3 mph 24.2 mph N/A   Clear
10:35 AM 35.6 °F 25.9 °F 14.0 °F 41% 30.42 in 10.0 mi North 16.1 mph 20.7 mph N/A   Clear
10:55 AM 37.4 °F 28.9 °F 12.2 °F 36% 30.42 in 10.0 mi NNW 13.8 mph 23.0 mph N/A   Clear
11:15 AM 39.2 °F 30.5 °F 12.2 °F 33% 30.42 in 10.0 mi NNW 16.1 mph 24.2 mph N/A   Clear
11:35 AM 39.2 °F 29.8 °F 12.2 °F 33% 30.42 in 10.0 mi NNW 18.4 mph 23.0 mph N/A   Clear
11:55 AM 41.0 °F 33.1 °F 12.2 °F 31% 30.41 in 10.0 mi North 15.0 mph 26.5 mph N/A   Clear
12:15 PM 41.0 °F 33.1 °F 14.0 °F 33% 30.41 in 10.0 mi NNW 15.0 mph 21.9 mph N/A   Clear
12:35 PM 42.8 °F 35.4 °F 14.0 °F 31% 30.40 in 10.0 mi NNW 15.0 mph - N/A   Clear
12:55 PM 42.8 °F 36.6 °F 12.2 °F 29% 30.39 in 10.0 mi NNW 11.5 mph 19.6 mph N/A   Clear
1:15 PM 44.6 °F 38.8 °F 12.2 °F 27% 30.38 in 10.0 mi NNW 11.5 mph 17.3 mph N/A   Clear
1:35 PM 44.6 °F 37.4 °F 12.2 °F 27% 30.37 in 10.0 mi NNW 16.1 mph 20.7 mph N/A   Clear
1:55 PM 46.4 °F 41.5 °F 12.2 °F 25% 30.36 in 10.0 mi NNW 10.4 mph 18.4 mph N/A   Clear
2:15 PM 46.4 °F 40.1 °F 12.2 °F 25% 30.35 in 10.0 mi NNW 15.0 mph 24.2 mph N/A   Clear
2:35 PM 46.4 °F 40.7 °F 10.4 °F 23% 30.35 in 10.0 mi North 12.7 mph 18.4 mph N/A   Clear
2:55 PM 48.2 °F - 12.2 °F 24% 30.34 in 10.0 mi WNW 10.4 mph 19.6 mph N/A   Clear
3:15 PM 48.2 °F - 12.2 °F 24% 30.34 in 10.0 mi North 10.4 mph 23.0 mph N/A   Clear
3:35 PM 50.0 °F - 12.2 °F 22% 30.34 in 10.0 mi NNW 9.2 mph - N/A   Clear
3:55 PM 50.0 °F - 12.2 °F 22% 30.33 in 10.0 mi North 13.8 mph 17.3 mph N/A   Clear
4:15 PM 50.0 °F - 12.2 °F 22% 30.33 in 10.0 mi North 11.5 mph 16.1 mph N/A   Clear
4:35 PM 50.0 °F - 10.4 °F 20% 30.33 in 10.0 mi NNW 10.4 mph - N/A   Clear
4:55 PM 50.0 °F - 12.2 °F 22% 30.33 in 10.0 mi North 11.5 mph 16.1 mph N/A   Clear
5:15 PM 50.0 °F - 10.4 °F 20% 30.32 in 10.0 mi NNW 8.1 mph - N/A   Clear
5:55 PM 50.0 °F - 12.2 °F 22% 30.32 in 10.0 mi NNW 6.9 mph - N/A   Clear
6:15 PM 48.2 °F - 12.2 °F 24% 30.33 in 10.0 mi NNW 5.8 mph - N/A   Clear
6:35 PM 46.4 °F 45.2 °F 14.0 °F 27% 30.33 in 10.0 mi NW 3.5 mph - N/A   Clear
6:55 PM 44.6 °F 43.1 °F 14.0 °F 29% 30.33 in 10.0 mi NW 3.5 mph - N/A   Clear
7:15 PM 41.0 °F - 19.4 °F 42% 30.33 in 10.0 mi Calm Calm - N/A   Clear
7:35 PM 37.4 °F 34.9 °F 17.6 °F 45% 30.33 in 10.0 mi South 3.5 mph - N/A   Clear
7:55 PM 35.6 °F 32.8 °F 19.4 °F 52% 30.34 in 10.0 mi SSW 3.5 mph - N/A   Clear
8:15 PM 32.0 °F 28.7 °F 21.2 °F 64% 30.34 in 10.0 mi SSW 3.5 mph - N/A   Clear
8:35 PM 30.2 °F - 21.2 °F 69% 30.34 in 10.0 mi Calm Calm - N/A   Clear
8:55 PM 32.0 °F - 21.2 °F 64% 30.34 in 10.0 mi Calm Calm - N/A   Clear
9:15 PM 32.0 °F 28.7 °F 21.2 °F 64% 30.34 in 10.0 mi SW 3.5 mph - N/A   Clear
9:35 PM 30.2 °F 25.4 °F 21.2 °F 69% 30.35 in 10.0 mi WSW 4.6 mph - N/A   Clear
9:55 PM 32.0 °F 26.4 °F 21.2 °F 64% 30.35 in 10.0 mi SW 5.8 mph - N/A   Clear
10:15 PM 32.0 °F 28.7 °F 21.2 °F 64% 30.35 in 10.0 mi SW 3.5 mph - N/A   Clear
10:35 PM 30.2 °F - 21.2 °F 69% 30.35 in 10.0 mi Calm Calm - N/A   Clear
10:55 PM 32.0 °F 28.7 °F 21.2 °F 64% 30.35 in 10.0 mi SW 3.5 mph - N/A   Clear
11:15 PM 30.2 °F 26.7 °F 21.2 °F 69% 30.35 in 10.0 mi SW 3.5 mph - N/A   Clear
11:35 PM 30.2 °F 26.7 °F 21.2 °F 69% 30.35 in 10.0 mi SW 3.5 mph - N/A   Clear
11:55 PM 28.4 °F 24.6 °F 21.2 °F 74% 30.34 in 10.0 mi SW 3.5 mph - N/A   Clear